Location: Newark
(48.9320°N, 2.2664°E)
Time: 12:12:59
(UTC+00:00)

Courier 1B - All Passes

Search period start: 17 February 2020 00:00
Search period end: 27 February 2020 00:00
Orbit: 962 x 1209 km, 28.3° (Epoch: 17 February)

Date Brightness Start Highest point End Pass type
(mag) Time Alt. Az. Time Alt. Az. Time Alt. Az.
17 Feb - 19:13:22 10° SSW 19:15:51 12° S 19:18:18 10° SSE visible
18 Feb - 18:19:43 10° SSW 18:22:26 12° S 18:25:06 10° SSE visible
19 Feb - 17:26:18 10° SSW 17:28:59 12° S 17:31:38 10° SSE daylight
19 Feb - 19:19:34 10° SSW 19:21:36 11° S 19:23:36 10° S visible
20 Feb - 16:33:10 10° S 16:35:32 12° S 16:37:52 10° SSE daylight
20 Feb - 18:25:21 10° SSW 18:28:11 13° S 18:30:56 10° SSE visible
21 Feb - 15:40:34 10° S 15:42:03 11° SSE 15:43:32 10° SSE daylight
21 Feb - 17:31:30 10° SSW 17:34:44 13° S 17:37:53 10° SSE daylight
22 Feb - 16:37:52 10° SSW 16:41:15 14° S 16:44:34 10° SSE daylight
22 Feb - 18:31:56 10° SSW 18:33:53 11° SSW 18:35:47 10° S visible
23 Feb - 15:44:26 10° SSW 15:47:46 13° S 15:51:00 10° SSE daylight
23 Feb - 17:37:27 10° SSW 17:40:26 13° S 17:43:22 10° SSE daylight
24 Feb - 14:51:18 10° SSW 14:54:15 12° S 14:57:09 10° SSE daylight
24 Feb - 16:43:25 10° SSW 16:46:58 14° S 16:50:26 10° SSE daylight
25 Feb - 13:58:40 10° S 14:00:44 11° SSE 14:02:48 10° SSE daylight
25 Feb - 15:49:38 10° SSW 15:53:28 15° S 15:57:13 10° SSE daylight
25 Feb - 17:44:35 10° SSW 17:46:06 11° SSW 17:47:38 10° S daylight
26 Feb - 14:56:04 10° SSW 14:59:56 15° S 15:03:45 10° SE daylight
26 Feb - 16:49:41 10° SW 16:52:39 13° SSW 16:55:34 10° SSE daylight
